Вернуться в каталог

SL-8 R/B

АктивенLEO
NORAD 11699·ROCKET BODY·🇷🇺 Russia

Запущен Feb 11, 1980 с Plesetsk Cosmodrome

Loading…

Ближайшие Пролёты (ближайшие 24 часа)

TLE

СвежийSource: Space-Track

Эпоха: Sep 14, 2026, 10:23 UTC

1 11699U 80012J   26257.43329568 -.00000105  00000-0 -82857-3 0  9990
2 11699  74.0109 249.1004 0140948 117.5280  34.9258 12.22635798 79337

Отслеживайте SL-8 R/B в реальном времени с AllMySat

Download on the App Store